Flag for Russia Weather past 2 weeks in Sochi, Russia

Now
68 °F

Clear.


Feels Like: 68 °F
Forecast: 65 / 83 °F
Wind: 8 mph from East

Location: Adler

Current Time: Aug 30, 2015 at 5:02:43 AM

Latest Report: Aug 30, 2015 at 4:30 AM


Visibility: N/A

Pressure: 30.04 "Hg

Humidity: 73%

Dew point: 59 °F

Location of SochiLocation

Historic Weather in Sochi — Graph

°F

Sochi temperature yesterday

Maximum temperature yesterday: 82 °F (at 10:00 AM)
Minimum temperature yesterday: 66 °F (at 4:00 AM)
Average temperature yesterday: 74 °F

Past Weeks' High & Low Weather Summary

 TemperatureHumidityPressure
High88 °F (Aug 15, 1:30 PM)89% (Aug 15, 5:00 AM)30.09 "Hg (Aug 15, 5:00 AM)
Low64 °F (Aug 24, 5:00 PM)45% (Aug 29, 10:00 AM)29.65 "Hg (Aug 24, 4:30 AM)
Average77 °F69%29.87 "Hg
* Reported Aug 15 4:00 AM — Aug 30 4:00 AM, Sochi, Weather by CustomWeather, © 2015

Note: Actual official high and low records may vary slightly from our data, if they occured in-between our weather recording intervals... More about our weather records

Advertising

Sochi weather history for previous 24 hours

 ConditionsComfort  
Time TempWeatherWind HumidityBarometerVisibility
4:00 AM
Sun, Aug 30
68 °FClear.8 mph73%30.04 "HgN/A
3:30 AM68 °FClear.8 mph78%30.04 "HgN/A
3:00 AM68 °FClear.No wind78%30.04 "HgN/A
2:30 AM70 °FClear.6 mph73%30.04 "HgN/A
2:00 AM70 °FClear.10 mph73%30.04 "HgN/A
1:30 AM70 °FClear.6 mph73%30.07 "HgN/A
1:00 AM70 °FClear.6 mph73%30.07 "HgN/A
12:30 AM70 °FClear.8 mph78%30.07 "HgN/A
12:00 AM70 °FClear.10 mph78%30.07 "HgN/A
11:30 PM
Sat, Aug 29
70 °FClear.8 mph78%30.07 "HgN/A
11:00 PM70 °FClear.8 mph83%30.07 "HgN/A
10:30 PM70 °FClear.6 mph83%30.07 "HgN/A
10:00 PM72 °FClear.8 mph78%30.07 "HgN/A
9:30 PM72 °FClear.6 mph78%30.07 "HgN/A
9:00 PM73 °FClear.3 mph78%30.07 "HgN/A
8:30 PM73 °FClear.3 mph78%30.07 "HgN/A
8:00 PM75 °FPassing clouds.3 mph74%30.07 "HgN/A
7:30 PM77 °FPassing clouds.3 mph69%30.07 "HgN/A
7:00 PM79 °FPassing clouds.3 mph65%30.07 "HgN/A
6:30 PM79 °FPassing clouds.3 mph65%30.04 "HgN/A
6:00 PM79 °FPassing clouds.6 mph65%30.04 "HgN/A
5:30 PM81 °FPassing clouds.6 mph62%30.04 "HgN/A
5:00 PM81 °FPassing clouds.8 mph62%30.04 "HgN/A
4:30 PM81 °FPassing clouds.8 mph62%30.04 "HgN/A
4:00 PM82 °FPassing clouds.6 mph58%30.04 "HgN/A
3:30 PM81 °FPassing clouds.8 mph62%30.07 "HgN/A
3:00 PM81 °FPassing clouds.8 mph62%30.07 "HgN/A
2:30 PM81 °FPassing clouds.8 mph62%30.07 "HgN/A
2:00 PM81 °FPassing clouds.8 mph62%30.07 "HgN/A
1:00 PM81 °FPassing clouds.8 mph58%30.09 "HgN/A
12:30 PM82 °FPassing clouds.8 mph55%30.09 "HgN/A
12:00 PM81 °FPassing clouds.10 mph58%30.09 "HgN/A
11:00 AM82 °FPassing clouds.6 mph48%30.07 "HgN/A
10:30 AM82 °FPassing clouds.6 mph48%30.07 "HgN/A
10:00 AM82 °FClear.1 mph45%30.07 "HgN/A
9:00 AM77 °FClear.8 mph51%30.07 "HgN/A
8:30 AM75 °FClear.8 mph54%30.07 "HgN/A
8:00 AM72 °FClear.10 mph61%30.07 "HgN/A
7:30 AM70 °FClear.13 mph64%30.07 "HgN/A
7:00 AM68 °FClear.10 mph69%30.07 "HgN/A
6:30 AM66 °FClear.13 mph73%30.07 "HgN/A
6:00 AM66 °FClear.10 mph73%30.07 "HgN/A
5:30 AM68 °FClear.13 mph69%30.07 "HgN/A
5:00 AM66 °FClear.3 mph73%30.07 "HgN/A
Weather by CustomWeather, © 2015

See weather overviewHow to use our weather pages